Current Weather Conditions: station 62124

sailwx.info

Wind from 050

Air temperature 12.0° C
Dewpoint 9.0° C

Last reported at 2020-Jun-03 12:00 UTC.
Time now 2020-Jun-03 13:22 UTC

Location: N 53°36' W 003°36'.
View on Google Maps.

See reports from other nearby stations

  
Tides and Currents Weather Stations Pressure Air Temp Water Temp Dewpoint Dewpoint Depression Visibility Wind Speed Wind Dir Waves Ship Positions
date/time (UTC)wind fromknots sea level pressurealtimeterstation pressurevisibilityair tempwater tempwave heightnotes
2020-Jun-03 12:00 050 12.0
2020-Jun-03 11:00 050 12.1
2020-Jun-03 10:00 060 12.1
2020-Jun-03 09:00 130 12.0
2020-Jun-03 08:00 070 12.5
2020-Jun-03 07:00 080 12.8
2020-Jun-03 06:00 010 13.2
2020-Jun-03 05:00 340 13.0
2020-Jun-03 04:00 050 13.8
2020-Jun-03 03:00 020 14.0
2020-Jun-03 02:00 330 13.9
2020-Jun-03 01:00 320 13.5
2020-Jun-03 00:00 280 14.1
2020-Jun-02 23:00 040 14.5
2020-Jun-02 22:00 340 14.6
2020-Jun-02 21:00 330 14.5
2020-Jun-02 20:00 310 15.5
2020-Jun-02 19:00 300 17.3
2020-Jun-02 18:00 290 17.5
2020-Jun-02 17:00 300 16.8
2020-Jun-02 16:00 310 16.6
2020-Jun-02 15:00 300 15.0
2020-Jun-02 14:00 290 14.9
2020-Jun-02 13:00 300 14.7
2020-Jun-02 12:00 300 14.6
2020-Jun-02 11:00 310 14.7
2020-Jun-02 10:00 180 18.1
2020-Jun-02 09:00 160 16.8
2020-Jun-02 08:00 120 14.9
2020-Jun-02 07:00 120 14.4
2020-Jun-02 06:00 120 14.1
2020-Jun-02 05:00 110 14.2
2020-Jun-02 04:00 110 14.5
2020-Jun-02 03:00 120 14.7
2020-Jun-02 02:00 120 15.5
2020-Jun-02 01:00 120 16.3
2020-Jun-02 00:00 100 16.3
2020-Jun-01 23:00 070 17.1
2020-Jun-01 22:00 040 15.9
2020-Jun-01 21:00 030 15.5
2020-Jun-01 20:00 020 16.1
2020-Jun-01 19:00 020 16.4
2020-Jun-01 18:00 010 15.8
2020-Jun-01 17:00 010 15.9
2020-Jun-01 16:00 010 15.6
2020-Jun-01 15:00 360 16.2
2020-Jun-01 14:00 360 15.7
2020-Jun-01 13:00 020 15.4